Simultaneous Nadir Overpasses (SNOs) Predictions

Prediction of SNOs between METOP-A and NOAA-19 Satellite Orbit:

Table of predicted SNOs for the next 14.0 days since TLE Epoch: 11/9/2012
Index Date (METOP-A) Time (METOP-A) METOP-A Lat,Lon Date (NOAA-19) Time (NOAA-19) NOAA-19 Lat,Lon Distance(km) Time Diff (sec)
1 11/10/2012 20:54:52 -73.72, 40.12 11/10/2012 20:53:43 -73.71, 37.97 67.10 69
2 11/10/2012 21:45:41 73.23,-153.65 11/10/2012 21:44:32 73.26,-153.71 3.15 69
3 11/10/2012 22:36:24 -73.20, 13.60 11/10/2012 22:35:38 -73.22, 13.60 2.51 46
4 11/10/2012 23:27:03 73.21,-179.04 11/10/2012 23:26:36 73.21,-179.12 2.59 27
5 11/11/2012 00:17:46 -73.17, -11.80 11/11/2012 00:17:42 -73.17, -11.82 0.61 4
6 11/11/2012 01:08:26 73.13, 155.45 11/11/2012 01:08:40 73.16, 155.46 3.11 14
7 11/11/2012 01:59:08 -73.15, -37.19 11/11/2012 01:59:46 -73.12, -37.23 2.67 38
8 11/11/2012 02:49:48 73.11, 130.06 11/11/2012 02:50:44 73.11, 130.05 0.67 56
9 11/11/2012 03:40:35 -72.87, -63.13 11/11/2012 03:41:47 -72.93, -62.32 27.18 72
10 11/20/2012 19:06:19 -73.48, 66.72 11/20/2012 19:05:07 -73.51, 65.61 35.10 72
11 11/20/2012 19:57:03 73.24,-126.49 11/20/2012 19:56:01 73.24,-126.51 0.70 62
12 11/20/2012 20:47:46 -73.21, 40.75 11/20/2012 20:47:06 -73.22, 40.76 1.60 40
13 11/20/2012 21:38:25 73.21,-151.89 11/20/2012 21:38:05 73.19,-151.93 2.38 20
14 11/20/2012 22:29:08 -73.18, 15.35 11/20/2012 22:29:10 -73.17, 15.35 0.40 2
15 11/20/2012 23:19:47 73.13,-177.40 11/20/2012 23:20:08 73.15,-177.34 2.52
